AirNav   $300 off a Bose A20 aviation headset
 
 973 users online  

0MU7 Lambs Field Airport
Lone Jack, Missouri, USA

GOING TO LONE JACK?


FAA INFORMATION EFFECTIVE 28 FEBRUARY 2019

Location

FAA Identifier: 0MU7
Lat/Long: 38-52-30.0310N / 094-08-22.8020W
38-52.500517N / 094-08.380033W
38.8750086 / -94.1396672
(estimated)
Elevation: 1070 ft. / 326 m (estimated)
Variation: 04E (1995)
From city: 3 miles E of LONE JACK, MO
Time zone: UTC -6 (UTC -5 during Daylight Saving Time)
Zip code: 64070

Airport Operations

Airport use: Private use. Permission required prior to landing
Activation date: 09/1996
Control tower: no
ARTCC: KANSAS CITY CENTER
FSS: COLUMBIA FLIGHT SERVICE STATION
Attendance: UNATNDD
Wind indicator: yes
Segmented circle: no

Airport Communications

WX ASOS at LXT (12 nm NW): 124.175 (816-347-9807)
WX AWOS-3 at RCM (17 nm E): 119.575 (660-422-7010)
WX AWOS-3PT at LRY (19 nm SW): 119.975 (816-380-5936)

Nearby radio navigation aids

VOR radial/distance  VOR name  Freq  Var
ANXr175/13.2NAPOLEON VORTAC114.0007E
MCIr126/37.2KANSAS CITY VORTAC113.2505E
BUMr017/39.7BUTLER VORTAC115.9007E

 
NDB name  Hdg/Dist  Freq  Var  ID
GOLDEN VALLEY324/37.638801EGLY --. .-.. -.--

Airport Services

Runway Information

Runway 18/36

Dimensions: 2600 x 60 ft. / 792 x 18 m
Surface: turf
RUNWAY 18  RUNWAY 36
Traffic pattern: leftleft

Airport Ownership and Management from official FAA records

Ownership: Privately-owned
Owner: JIMMIE D LAMB
13301 S. RAGSDALE RD.
LOVE JACK, MO 64070
Phone (913) 207-1904
Manager: TERRY D. LAMB
13301 S. RAGSDALE RD.
LOVE JACK, MO 64070
Phone (913) 207-1904

Airport Operational Statistics

Aircraft based on the field: 6
Single engine airplanes: 2
Ultralights: 4
    

Additional Remarks

FOR CD CTC KANSAS CITY APCH AT 816-329-2710.

Instrument Procedures

There are no published instrument procedures at 0MU7.

Some nearby airports with instrument procedures:

3GV - East Kansas City Airport (9 nm NW)
KLXT - Lee's Summit Municipal Airport (12 nm NW)
KRCM - Skyhaven Airport (17 nm E)
KLRY - Lawrence Smith Memorial Airport (19 nm SW)
KHIG - Higginsville Industrial Municipal Airport (25 nm NE)
 
Loc | Ops | Rwys | IFR | FBO | Links
Com | Nav | Svcs | Stats | Notes

Kansas City Aviation Department
 
Area around 0MU7 (Lambs Field Airport)
 
Road maps at: MapQuest Bing Google
 
Aerial photo
No photo
 
Sectional chart

 
Airport distance calculator
Flying to Lambs Field Airport? Find the distance to fly.

From to 0MU7

Sunrise and sunset
Times for 22-Mar-2019
 Local
(UTC-5)
 Zulu
(UTC)
Morning civil twilight06:5111:51
Sunrise07:1812:18
Sunset19:2900:29
Evening civil twilight19:5600:56

Current date and time
Zulu (UTC)  22-Mar-2019 22:51:13
Local (UTC-5)  22-Mar-2019 17:51:13
 
METAR
KLXT 
12nm NW 
222153Z AUTO 00000KT 10SM CLR 19/01 A3013 RMK AO2 SLP203 T01890006
KRCM 
17nm E 
222235Z AUTO 03003KT 10SM CLR 18/00 A3012 RMK AO2
KLRY 
19nm SW 
222235Z AUTO 00000KT 10SM CLR 20/00 A3014 RMK AO2
TAF
KMKC 
26nm NW 
221720Z 2218/2318 VRB03KT P6SM FEW250 FM230200 08005KT P6SM BKN250 FM231500 11007KT P6SM OVC050
KSZL 
30nm E 
221900Z 2219/2401 03006KT 9999 SCT110 QNH3011INS BECMG 2314/2315 13010G15KT 9999 SCT060 BKN080 620808 QNH3014INS BECMG 2320/2321 16012KT 9999 SCT010 BKN030 620808 QNH3009INS BECMG 2323/2324 12012KT 6000 -SHRA OVC020 620808 510105 QNH3003INS TX18/2220Z TN05/2308Z
NOTAMs
Click for the latest NOTAMs
NOTAMs are issued by the DoD/FAA and will open in a separate window not controlled by AirNav.

 

 
 

Would you like to see your business listed on this page?

 If your business provides an interesting product or service to pilots, flight crews, aircraft, or users of the Lambs Field Airport, you should consider listing it here.  To start the listing process, click on the button below
 
Add a business
 

Other Pages about Lambs Field Airport

Update a link
 
Copyright © AirNav, LLC. All rights reserved. Privacy Policy  Contact